Regional Weather Roundup
Issued by NWS

Home | Current Version | Previous Version | Graphics & Text | Print | Product List | Glossary On
Versions: 1 2 3 4 5 6 7 8 9 10 11 12 13 14 15 16 17 18 19 20 21 22 23 24 25 26 27 28 29 30 31 32 33 34 35 36 37 38 39 40 41 42 43 44 45 46 47 48 49 50
000
ASUS43 KLOT 130406
RWRIL

ILLINOIS REGIONAL WEATHER ROUNDUP
NATIONAL WEATHER SERVICE CHICAGO/ROMEOVILLE IL
1100 PM CDT SAT JUL 12 2014

NOTE: "FAIR" INDICATES FEW OR NO CLOUDS BELOW 12,000 FEET WITH NO
SIGNIFICANT WEATHER AND/OR OBSTRUCTIONS TO VISIBILITY.

* THESE STATIONS ARE NOT UNDER NWS QUALITY CONTROL. THEY ALSO MAY NOT
  REPORT WEATHER SUCH AS PRECIPITATION OR FOG.

ILZ001-002-007-009-015-016-024-130500-
NORTHWEST ILLINOIS

CITY           SKY/WX    TMP DP  RH WIND       PRES   REMARKS
MOLINE         CLOUDY    74  70  87 W8        29.91R
STERLING*      CLOUDY    72  70  94 N8        29.90F
SAVANNA*       LGT RAIN  72  70  94 CALM        N/A
$$

ILZ003-004-008-010-011-017-018-130500-
NORTH CENTRAL ILLINOIS

CITY           SKY/WX    TMP DP  RH WIND       PRES   REMARKS
ROCKFORD       RAIN      71  68  90 W8        29.92R FOG
FREEPORT*      RAIN      66  65  95 SW6       29.94S
ROCHELLE*      CLOUDY    69  67  94 NW7       29.91F
DE KALB*       RAIN      69  67  94 W17G25    29.91S
PERU*          CLOUDY    78  74  88 SW8       29.90F HX  81
$$

ILZ005-006-012>014-019>023-130500-
NORTHEAST ILLINOIS

CITY           SKY/WX    TMP DP  RH WIND       PRES   REMARKS
CHICAGO-OHARE  RAIN      79  73  82 SW12      29.85R HX  82
CHICAGO-MIDWAY LGT RAIN  80  77  90 SW12      29.86R HX  87
AURORA         TSTM      72  67  84 W16G33    29.90R
LANSING*       LGT RAIN  78  74  87 SW14      29.88R HX  80
JOLIET*        CLOUDY    78  73  86 SW6       29.89S HX  80
WAUKEGAN       TSTM      73  71  93 N8G16     29.84R FOG
DUPAGE AIRPORT LGT RAIN  78  75  90 W14       29.90R HX  81
KANKAKEE*      CLOUDY    78  74  89 S10       29.91S HX  80
WHEELING       TSTM      79  76  90 SW8       29.86S HX  83
MORRIS*        CLOUDY    79  76  92 SW10      29.90R HX  83
ROMEOVILLE*    LGT RAIN  78  75  92 SW12G18   29.88S
NORTHERLY ISL    N/A     79  74  84 S7          N/A  HX  82
$$

LMZ740>746-130500-
SOUTHERN LAKE MICHIGAN

STATION/POSITION SKY/WX   TEMP    WIND        PRES    VSBY  WAVE
                          AIR SEA DIR/SP/G                  HT/PER
                          (F)     (DEG/KT/KT) (MB)    (MI)  (FT/S)
SOUTHERN BUOY              66 60  180/ 17/ 21 1008.6F         2/ 4
WAUKEGAN HARBOR            74     210/ 18/ 27 1010.8R
HARRISON CRIB              78     200/ 18/ 23   N/A
BURNHAM HARBOR             79     220/  7/ 15   N/A
CALUMET HARBOR             77     200/  9/ 12 1012.1S
BURNS HARBOR               76     190/ 11/ 16 1012.2R
MICHIGAN CITY              76     160/ 14/ 21   N/A
$$

ILZ025>027-034>036-040-047-049-050-058-095>099-130500-
WEST-CENTRAL ILLINOIS

CITY           SKY/WX    TMP DP  RH WIND       PRES   REMARKS
QUINCY         CLOUDY    81  70  69 SW10      29.96S HX  84
GALESBURG*     LGT RAIN  75  71  88 SW10      29.95R
MACOMB*        RAIN      71  71 100 CALM      29.97F
JACKSONVILLE*  CLOUDY    81  73  78 SW6       29.98R HX  85
PITTSFIELD*    CLOUDY    82  69  64 SW7       29.99R HX  86
$$

ILZ028>032-037-038-041>044-048-051>054-059>061-130500-
CENTRAL ILLINOIS

CITY           SKY/WX    TMP DP  RH WIND       PRES   REMARKS
PONTIAC        LGT RAIN  81  75  83 SW7       29.92R HX  86
BLOOMINGTON    CLOUDY    79  70  74 SW15      29.95R HX  82
DECATUR        MOCLDY    80  72  76 SW15      29.97S HX  84
PEORIA         LGT RAIN  81  73  76 W12       29.93R HX  86
LACON*         LGT RAIN  80  73  77 SW10      29.90R HX  84
LINCOLN*       CLOUDY    81  71  71 SW3       29.92R HX  85
SPRINGFIELD    CLOUDY    82  73  74 SW9       29.97R HX  87
TAYLORVILLE    MOCLDY    77  72  83 S12       29.98R
$$

ILZ033-039-045-046-055>057-062-063-130500-
EAST-CENTRAL ILLINOIS

CITY           SKY/WX    TMP DP  RH WIND       PRES   REMARKS
CHAMPAIGN      PTCLDY    78  74  87 S10       29.97R HX  81
RANTOUL*       MOCLDY    81  73  76 SW14G20   29.96R HX  85
MATTOON        CLEAR     79  75  87 S9        29.98S HX  83
PARIS*         CLEAR     77  74  92 S12       29.98F
$$

ILZ079-100>102-130500-
SOUTHWEST ILLINOIS

CITY           SKY/WX    TMP DP  RH WIND       PRES   REMARKS
ALTON          CLEAR     81  76  86 S7        30.00S HX  87
CAHOKIA*       CLEAR     84  72  67 S7        30.00S HX  89
SPARTA*        CLEAR     79  73  83 S6        30.04S HX  82
$$

ILZ064>066-069>071-074>076-080>082-084>086-088>090-092>094-130500-
SOUTH-CENTRAL ILLINOIS

CITY           SKY/WX    TMP DP  RH WIND       PRES   REMARKS
CARBONDALE     CLEAR     80  73  79 S9        30.04S HX  84
CAIRO*         CLEAR     81  73  75 S3        30.07R HX  86
MARION         CLEAR     81  73  78 S7        30.05F HX  85
MT. VERNON     CLEAR     81  72  74 SW12      30.03F HX  84
CENTRALIA*     CLEAR     79  73  81 S10       30.02F HX  83
SALEM*         CLEAR     83  77  83 S12       30.01F HX  91
METROPOLIS*    PTCLDY    80  70  71 S3        30.06S HX  83
$$

ILZ067-068-072-073-078-083-087-091-130500-
SOUTHEAST ILLINOIS

CITY           SKY/WX    TMP DP  RH WIND       PRES   REMARKS
FLORA*         CLEAR     79  73  83 S9        30.02F HX  82
HARRISBURG*    PTCLDY    78  74  85 S6        30.06F HX  81
ROBINSON*      CLEAR     79  75  88 S9        30.01F HX  83
CARMI*         PTCLDY    78  75  92 S5        30.04S HX  80
$$

ABBREVIATIONS USED IN REMARKS
   TC - TEMPERATURE IN CELSIUS
  WCI - WIND CHILL INDEX
   HX - HEAT INDEX
  VSB - VISIBILITY
$$



USA.gov is the U.S. government's official web portal to all federal, state and local government web resources and services.